Regional Weather Roundup
Issued by NWS Columbia, SC

Home | Current Version | Previous Version | Text Only | Print | Product List | Glossary On
Versions: 1 2 3 4 5 6 7 8 9 10 11 12 13 14 15 16 17 18 19 20 21 22 23 24 25 26 27 28 29
000
ASUS42 KCAE 260310
RWRCAE
REGIONAL WEATHER ROUNDUP
NATIONAL WEATHER SERVICE COLUMBIA SC
1100 PM EDT SAT OCT 25 2014

NOTE: "FAIR" INDICATES FEW OR NO CLOUDS BELOW 12,000 FEET WITH NO
SIGNIFICANT WEATHER AND/OR OBSTRUCTIONS TO VISIBILITY.

NOT ALL STATIONS ARE QUALITY CONTROLLED BY THE NATIONAL
WEATHER SERVICE. USE DATA WITH CAUTION...ESPECIALLY
DEWPOINT OBSERVATIONS.

SCZ001>056-GAZ040-063>065-077-260400-
...UPSTATE SOUTH CAROLINA...

CITY           SKY/WX    TMP DP  RH WIND       PRES   REMARKS
ANDERSON       CLEAR     54  48  80 CALM      29.99R
LIBERTY        FAIR      49  49 100 MISG      29.99S
SPARTANBURG    FAIR      61  46  59 W3        29.97S
CLEMSON        CLEAR     61  52  72 CALM      30.00S
GREENVILLE     CLEAR     61  46  57 NW3       29.99S
GREENWOOD      CLEAR     52  48  86 CALM      30.00S
GREER          CLEAR     57  48  72 W3        29.97S
ROCK HILL      CLEAR     60  44  55 SW8       29.95F


...CENTRAL SOUTH CAROLINA...

CITY           SKY/WX    TMP DP  RH WIND       PRES   REMARKS
COLUMBIA APT   CLEAR     54  47  77 CALM      29.97S
COLUMBIA OWENS CLEAR     54  49  83 CALM      29.98S
DARLINGTON     CLEAR     50  43  76 SW8       29.95F
FLORENCE       CLEAR     53  46  77 W6        29.95S
MCENTIRE ANGB  CLEAR     49  46  88 CALM      29.97S
ORANGEBURG     CLEAR     52  49  89 CALM      29.98S
SUMTER SHAW    CLEAR     54  48  81 SW2       29.95S
NEWBERRY       FAIR      52  52 100 W3        30.00S
AIKEN          FAIR      52  45  76 CALM      30.02S
BARNWELL       FAIR      52  46  82 CALM      30.00R
MANNING        FAIR      50 N/A N/A CALM      29.97S
CAMDEN         FAIR      52  46  82 CALM      29.97F
LANCASTER      FAIR      55  50  82 CALM      29.96F
WINNSBORO      FAIR      59  45  58 W5        29.96F


...EASTERN AND COASTAL SOUTH CAROLINA...

CITY           SKY/WX    TMP DP  RH WIND       PRES   REMARKS
N MYRTLE BCH   CLEAR     50  47  89 W5        29.95S
CONWAY         FAIR      45  45 100 CALM      29.96S
MARION         FAIR      52  46  82 CALM      29.95S
FLORENCE       CLEAR     53  46  77 W6        29.95S
DARLINGTON     CLEAR     50  43  76 SW8       29.95F
CHARLESTON APT CLEAR     56  51  84 CALM      29.98R
MOUNT PLEASANT FAIR      52  52 100 CALM      29.98S
WALTERBORO     CLEAR     52 N/A N/A CALM      29.99S
BEAUFORT       CLEAR     54  50  86 SW3       29.99R


...EASTERN GEORGIA...

CITY           SKY/WX    TMP DP  RH WIND       PRES   REMARKS
AUGUSTA BUSH F CLEAR     48  44  86 CALM      29.99S
AUGUSTA DANIEL CLEAR     64  45  49 CALM      30.00S
THOMSON        CLEAR     54  54 100 CALM      30.04F
WASHINGTON     FAIR      61  55  82 W6        30.00S
CLAXTON        FAIR      52  52 100 CALM      30.01S
SYLVANIA       CLEAR     57  56  94 CALM      30.01S
SAVANNAH       CLEAR     57  51  80 CALM      30.00R


...SOUTHERN NORTH CAROLINA...

CITY           SKY/WX    TMP DP  RH WIND       PRES   REMARKS
CHARLOTTE      CLEAR     56  41  57 W5        29.95F
MONROE         CLEAR     55  44  66 SW7       29.93F
WADESBORO      CLEAR     55  43  62 CALM      29.92F
ROCKINGHAM     CLEAR     55  43  63 SW5       29.93F
RUTHERFORDTON  CLEAR     51  47  83 NW6       29.97F
ASHEVILLE      CLEAR     53  45  74 N6        30.04F

$$



USA.gov is the U.S. government's official web portal to all federal, state and local government web resources and services.